EW7191 Weather Reports


Display with metric or nautical units.
time (UTC)temp
F
wind
direction
speed
MPH
gust
MPH
rain 1hr
in
rain 24hr
in
rain mn
in
humidity
%
barometer
mb
20260906064528 54 162 0.0 0.0 0.00 0.00 0.00 93 1021.9
20260906063031 54 162 0.0 0.0 0.00 0.00 0.00 93 1021.9
20260906061527 54 162 0.0 0.0 0.00 0.00 0.00 93 1021.9
20260906060025 54 162 0.0 0.0 0.00 0.00 0.00 93 1021.9
20260906054547 55 162 0.0 0.0 0.00 0.00 0.00 93 1021.9
20260906053024 55 162 0.0 0.0 0.00 0.00 0.00 92 1021.8
20260906051531 55 162 0.0 0.0 0.00 0.00 0.00 92 1021.9
20260906050029 55 132 0.0 0.0 0.00 0.00 0.00 91 1021.8
20260906044524 55 86 0.0 0.0 0.00 0.00 0.00 92 1021.8
20260906043023 55 86 0.0 0.0 0.00 0.00 0.00 92 1022.0
20260906041524 56 86 0.0 0.0 0.00 0.00 0.00 91 1022.0
20260906040021 56 51 0.0 0.0 0.00 0.00 0.00 92 1021.9
20260906034523 56 51 0.0 0.0 0.00 0.00 0.00 92 1021.7
20260906033021 56 51 0.0 0.0 0.00 0.00 0.00 90 1021.5
20260906031553 56 51 0.0 0.0 0.00 0.00 0.00 90 1021.2
20260906030018 57 51 0.0 0.0 0.00 0.00 0.00 89 1021.0
20260906024540 57 86 0.0 0.0 0.00 0.00 0.00 89 1020.8
20260906023020 58 84 0.0 0.0 0.00 0.00 0.00 89 1021.0
20260906021517 58 113 0.0 0.0 0.00 0.00 0.00 90 1021.0
20260906020016 58 73 0.0 0.0 0.00 0.00 0.00 90 1021.1
20260906014519 58 160 0.0 0.0 0.00 0.00 0.00 89 1021.2
20260906013015 58 271 0.0 0.0 0.00 0.00 0.00 88 1021.0
20260906011514 59 55 0.0 2.0 0.00 0.00 0.00 84 1020.7
20260906010033 63 289 0.0 8.0 0.00 0.00 0.00 70 1020.7
20260906004512 71 259 0.0 0.0 0.00 0.00 0.00 45 1019.8
20260906003012 73 267 0.0 2.0 0.00 0.00 0.00 41 1019.3
20260906001510 74 328 0.0 4.0 0.00 0.00 0.00 37 1019.3
20260906000017 76 328 0.0 4.0 0.00 0.00 0.00 38 1019.3
20260905234510 76 328 0.0 7.0 0.00 0.00 0.00 35 1019.2
20260905233108 76 87 0.0 1.0 0.00 0.00 0.00 35 1019.2
20260905231506 77 323 0.0 1.0 0.00 0.00 0.00 33 1019.5
20260905230007 77 269 0.0 0.0 0.00 0.00 0.00 35 1019.6
20260905224503 75 248 0.0 1.0 0.00 0.00 0.00 36 1019.9
20260905223059 75 99 0.0 4.0 0.00 0.00 0.00 35 1020.0
20260905221556 74 136 0.0 1.0 0.00 0.00 0.00 35 1020.2
20260905220055 75 271 0.0 0.0 0.00 0.00 0.00 34 1020.4
20260905214554 74 224 0.0 6.0 0.00 0.00 0.00 35 1020.6
20260905213059 74 272 0.0 0.0 0.00 0.00 0.00 35 1020.7
20260905211603 73 264 0.0 1.0 0.00 0.00 0.00 38 1020.9
20260905210059 72 208 0.0 1.0 0.00 0.00 0.00 42 1021.0
20260905204545 72 160 0.0 4.0 0.00 0.00 0.00 39 1021.2
20260905203042 72 306 0.0 1.0 0.00 0.00 0.00 40 1021.3
20260905201549 71 32 0.0 0.0 0.00 0.00 0.00 40 1021.3
20260905200037 69 69 0.0 0.0 0.00 0.00 0.00 43 1021.4
20260905194532 69 319 0.0 0.0 0.00 0.00 0.00 52 1021.7
20260905193029 68 303 0.0 0.0 0.00 0.00 0.00 55 1021.8
20260905191526 67 187 0.0 0.0 0.00 0.00 0.00 58 1022.1
20260905190022 66 255 0.0 0.0 0.00 0.00 0.00 62 1022.4
20260905184518 64 239 0.0 1.0 0.00 0.00 0.00 65 1022.5
20260905183115 63 266 0.0 0.0 0.00 0.00 0.00 66 1022.8
20260905181511 61 268 0.0 0.0 0.00 0.00 0.00 70 1022.9
20260905180109 60 263 0.0 0.0 0.00 0.00 0.00 71 1023.1
20260905174505 59 276 0.0 0.0 0.00 0.00 0.00 75 1023.1
20260905173002 57 254 0.0 0.0 0.00 0.00 0.00 78 1023.3
20260905171559 56 252 0.0 1.0 0.00 0.00 0.00 81 1023.3
20260905170057 55 293 0.0 1.0 0.00 0.00 0.00 84 1023.4
20260905164551 53 263 0.0 1.0 0.00 0.00 0.00 87 1023.5
20260905163048 52 276 0.0 0.0 0.00 0.00 0.00 89 1023.6
20260905161543 52 262 0.0 0.0 0.00 0.00 0.00 90 1023.7
20260905160041 50 262 0.0 0.0 0.00 0.00 0.00 91 1023.9
20260905154539 50 259 0.0 0.0 0.00 0.00 0.00 92 1023.9
20260905153035 49 245 0.0 0.0 0.00 0.00 0.00 92 1024.0
20260905151536 49 81 0.0 0.0 0.00 0.00 0.00 94 1024.1
20260905150033 47 81 0.0 0.0 0.00 0.00 0.00 95 1024.1
20260905144532 44 81 0.0 0.0 0.00 0.00 0.00 95 1024.0
20260905143033 44 81 0.0 0.0 0.00 0.00 0.00 95 1023.9
20260905141530 44 81 0.0 0.0 0.00 0.00 0.00 94 1023.7
20260905140028 44 81 0.0 0.0 0.00 0.00 0.00 95 1023.6
20260905134532 44 81 0.0 0.0 0.00 0.00 0.00 94 1023.3
20260905133024 44 81 0.0 0.0 0.00 0.00 0.00 94 1023.4
20260905131527 44 81 0.0 0.0 0.00 0.00 0.00 94 1023.5
20260905130021 44 81 0.0 0.0 0.00 0.00 0.00 94 1023.4
20260905124532 45 81 0.0 0.0 0.00 0.00 0.00 94 1023.4
20260905123017 45 81 0.0 0.0 0.00 0.00 0.00 94 1023.4
20260905121519 45 81 0.0 0.0 0.00 0.00 0.00 93 1023.3
20260905120014 46 81 0.0 0.0 0.00 0.00 0.00 93 1023.4
20260905114512 46 81 0.0 0.0 0.00 0.00 0.00 93 1023.3
20260905113011 46 81 0.0 0.0 0.00 0.00 0.00 93 1023.4
20260905111510 47 81 0.0 0.0 0.00 0.00 0.00 92 1023.4
20260905110007 47 81 0.0 0.0 0.00 0.00 0.00 92 1023.3
20260905104506 48 81 0.0 0.0 0.00 0.00 0.00 92 1023.3
20260905103006 48 81 0.0 0.0 0.00 0.00 0.00 92 1023.3
20260905101511 48 81 0.0 0.0 0.00 0.00 0.00 92 1023.3
20260905100005 48 81 0.0 0.0 0.00 0.00 0.00 91 1023.3
20260905094504 49 81 0.0 0.0 0.00 0.00 0.00 91 1023.3
20260905093002 48 75 0.0 0.0 0.00 0.00 0.00 92 1023.2
20260905091503 48 96 0.0 0.0 0.00 0.00 0.00 92 1023.2
20260905090002 48 96 0.0 0.0 0.00 0.00 0.00 92 1023.1
20260905084602 48 96 0.0 0.0 0.00 0.00 0.00 92 1023.2
20260905083104 48 53 0.0 0.0 0.00 0.00 0.00 91 1023.1
20260905081559 48 53 0.0 0.0 0.00 0.00 0.00 91 1023.1
20260905080104 49 53 0.0 0.0 0.00 0.00 0.00 91 1023.0
20260905074555 49 84 0.0 0.0 0.00 0.00 0.00 90 1022.9
20260905073054 49 84 0.0 0.0 0.00 0.00 0.00 91 1023.0
20260905071553 49 77 0.0 0.0 0.00 0.00 0.00 91 1023.0
20260905070052 49 269 0.0 0.0 0.00 0.00 0.00 91 1022.9